OBJECT AQ (43796 NORAD) Tracking and Keplerian Element Data

This shows tracking and keplerian element data for the satellite.

Feedback or suggestion? Click here.




ElementValue
Catalog43796
NameOBJECT AQ
Epoch Orbit663
Epoch Day17.17498311
Epoch Year2019
RAAN90.9263
Inclination97.7623
Eccentricity0.0016563
Argument of Perigee102.5905
Mean Anonmoly257.7169
Mean Motion14.95648008
Decay Rate-2.06E-06
L11 43796U 18099AQ 19017.17498311 -.00000206 00000-0 -13272-4 0 9997
L22 43796 97.7623 90.9263 0016563 102.5905 257.7169 14.95648008 6634

Live tracking and technical data element details for OBJECT AQ (NORAD 43796). OBJECT AQ can be tracked NOW for your location showing map with azimuth and elevation plus other details from your city location.

Track the satellite on the map from your city or location and see movement details for azimuth, elevation, latitude, longitude, range, height, and movement on the map or in text.







IsCatalogInMostPopularTable: catalog: 43796, numindb: 22
Update: records affected: 1



GetName: 43796 OBJECT AQ

Hit Count: updated at: Wed, 23 Jan 2019 02:41:19 GMT